Orbital Elements at Epoch 2454600.5 (2008-May-14.0) TDB
Reference: JPL 29 (heliocentric ecliptic J2000)
Element | Value | Uncertainty (1-sigma) | Units |
e | .2778698473891115 | 2.7229e-06 | |
a | 6.02662250830701 | 3.0009e-05 | au |
q | 4.352005831651956 | 3.8013e-05 | au |
i | 7.876255396851672 | 4.403e-05 | deg |
node | 181.6629114257968 | 0.000111 | deg |
peri | 175.0895645951842 | 0.0037691 | deg |
M | 17.63184126205929 | 0.0021457 | deg |
tp | 2454335.830085384818 (2007-Aug-23.33008538) | 0.030234 | TDB |
period | 5403.926217648879 14.80 | 0.040363 0.0001105 | d yr |
n | .06661823006099953 | 4.9758e-07 | deg/d |
Q | 7.701239184962063 | 3.8348e-05 | au |
|
| | Orbit Determination Parameters
Additional Information
|